This is the latest recevied weather packets stored in our database for station/object SV9TNF-2. If no packets are shown the sender has not sent any weather packets the latest 10 day(s).
| Time | Temp. | Humidity | Pressure | Rain* | Wind** | Luminosity | Snow |
|---|---|---|---|---|---|---|---|
| 1778016012 | 14.44° C | 55% | 1022.7 hPa | 0 mm | 4.92 m/s, 190° | - | - |
| 1778015711 | 14.44° C | 55% | 1022.7 hPa | 0 mm | 6.26 m/s, 204° | - | - |
| 1778015411 | 14.44° C | 55% | 1023 hPa | 0 mm | 4.92 m/s, 177° | - | - |
| 1778015111 | 15° C | 54% | 1023 hPa | 0 mm | 5.81 m/s, 217° | - | - |
| 1778014815 | 14.44° C | 56% | 1023 hPa | 0 mm | 6.71 m/s, 189° | - | - |
| 1778014511 | 15° C | 54% | 1023 hPa | 0 mm | 7.15 m/s, 180° | - | - |
| 1778014211 | 15° C | 56% | 1023 hPa | 0 mm | 4.47 m/s, 172° | - | - |
| 1778013911 | 15° C | 56% | 1023 hPa | 0 mm | 7.15 m/s, 208° | - | - |
| 1778013611 | 15° C | 56% | 1023 hPa | 0 mm | 8.05 m/s, 192° | - | - |
| 1778013311 | 15° C | 57% | 1023 hPa | 0 mm | 8.49 m/s, 196° | - | - |
| 1778013011 | 14.44° C | 58% | 1023 hPa | 0 mm | 8.94 m/s, 187° | - | - |
| 1778012711 | 14.44° C | 59% | 1023 hPa | 0 mm | 5.81 m/s, 169° | - | - |
| 1778012411 | 14.44° C | 59% | 1023 hPa | 0 mm | 4.47 m/s, 212° | - | - |
| 1778012110 | 15° C | 59% | 1023 hPa | 0 mm | 8.05 m/s, 218° | - | - |
| 1778011810 | 15° C | 59% | 1023 hPa | 0 mm | 6.71 m/s, 204° | - | - |
| 1778011510 | 15° C | 59% | 1023 hPa | 0 mm | 8.05 m/s, 170° | - | - |
| 1778011210 | 15° C | 60% | 1023.4 hPa | 0 mm | 7.6 m/s, 245° | - | - |
| 1778010910 | 15° C | 60% | 1023.4 hPa | 0 mm | 8.94 m/s, 181° | - | - |
| 1778010610 | 15° C | 62% | 1023.4 hPa | 0 mm | 2.68 m/s, 216° | - | - |
| 1778010309 | 14.44° C | 64% | 1023 hPa | 0 mm | 7.15 m/s, 165° | - | - |
| 1778010009 | 14.44° C | 64% | 1023 hPa | 0 mm | 5.81 m/s, 267° | - | - |
| 1778009710 | 14.44° C | 64% | 1023.4 hPa | 0 mm | 8.05 m/s, 179° | - | - |
| 1778009409 | 14.44° C | 65% | 1023.4 hPa | 0 mm | 8.05 m/s, 244° | - | - |
| 1778009109 | 14.44° C | 65% | 1023.4 hPa | 0 mm | 6.71 m/s, 203° | - | - |
| 1778008809 | 14.44° C | 65% | 1023.4 hPa | 0 mm | 6.71 m/s, 128° | - | - |
* Rain latest hour (hover to see other rain measurements)
** Current wind speed in m/s (hover to see current wind gust speed)